Date String (YYYY-MM-DD hh:mm:ss) UTC,Instrument flags,Ambient pressure (hPa),Sample flow (lpm),Bypass flow (lpm),Sample temperature (°C),Ambient temperature (°C),ASC tube jacket temperature (°C),LED temperature (°C),Box temperature (°C),Sample RH (%),Span deviation,Mass concentration (μg/m³),Mass concentration (μg/m³),Mass concentration (μg/m³)
DateTimeUTC,F1_M11,P_M11,Q1_M11,Q2_M11,T1_M11,T2_M11,T3_M11,T4_M11,T5_M11,U1_M11,ZSPAN_M11,X0_M11,X2_M11,X1_M11
2022-10-28 20:00:00,,0831.4,5.00,0.00,27.5,26.3,00.0,36.1,29.4,10.9,0000.0,0010.68,0005.54,0005.01
2022-10-28 20:01:00,,0831.3,5.00,0.00,27.5,26.3,00.0,36.2,29.4,11.0,0000.0,0010.97,0005.66,0005.11
2022-10-28 20:02:00,,0831.2,5.00,0.00,27.5,26.3,00.0,36.2,29.4,11.2,0000.0,0010.71,0005.76,0005.19
2022-10-28 20:03:00,,0831.2,4.99,0.00,27.5,26.3,00.0,36.2,29.4,11.2,0000.0,0010.50,0005.83,0005.26
2022-10-28 20:04:00,,0831.2,5.00,0.00,27.5,26.3,00.0,36.2,29.4,10.9,0000.0,0010.51,0005.87,0005.30
2022-10-28 20:05:00,,0831.2,5.00,0.00,27.5,26.3,00.0,36.2,29.4,11.2,0000.0,0010.45,0005.93,0005.37
2022-10-28 20:06:00,,0831.2,5.00,0.00,27.5,26.3,00.0,36.2,29.4,11.3,0000.0,0009.89,0006.01,0005.47
2022-10-28 20:07:00,,0831.2,5.00,0.00,27.5,26.3,00.0,36.2,29.4,11.0,0000.0,0009.86,0006.04,0005.53
2022-10-28 20:08:00,,0831.2,5.00,0.00,27.6,26.4,00.0,36.2,29.5,10.9,0000.0,0009.90,0006.06,0005.57
2022-10-28 20:09:00,,0831.2,5.00,0.00,27.6,26.4,00.0,36.2,29.5,10.8,0000.0,0009.87,0006.07,0005.60
2022-10-28 20:10:00,,0831.2,5.00,0.00,27.6,26.4,00.0,36.3,29.5,11.1,0000.0,0009.93,0006.11,0005.65
2022-10-28 20:11:00,,0831.2,5.00,0.00,27.6,26.4,00.0,36.3,29.5,11.3,0000.0,0009.96,0006.17,0005.73
2022-10-28 20:12:00,,0831.2,4.99,0.00,27.6,26.4,00.0,36.3,29.5,10.8,0000.0,0009.84,0006.20,0005.79
2022-10-28 20:13:00,,0831.2,4.99,0.00,27.6,26.5,00.0,36.3,29.5,10.7,0000.0,0009.86,0006.28,0005.85
2022-10-28 20:14:00,,0831.1,4.99,0.00,27.6,26.5,00.0,36.3,29.5,10.8,0000.0,0010.19,0006.36,0005.92
2022-10-28 20:15:00,,0831.1,5.02,0.00,27.7,26.5,00.0,36.3,29.6,11.0,0000.0,0010.45,0006.40,0005.99
2022-10-28 20:16:00,,0831.1,4.99,0.00,27.7,26.5,00.0,36.4,29.5,10.9,0000.0,0010.16,0006.43,0006.04
2022-10-28 20:17:00,,0831.0,5.00,0.00,27.7,26.5,00.0,36.4,29.6,10.6,0000.0,0010.57,0006.48,0006.07
2022-10-28 20:18:00,,0831.0,4.99,0.00,27.7,26.5,00.0,36.4,29.6,10.6,0000.0,0011.02,0006.53,0006.08
2022-10-28 20:19:00,,0831.0,5.00,0.00,27.7,26.5,00.0,36.4,29.6,10.9,0000.0,0011.08,0006.55,0006.10
2022-10-28 20:20:00,,0831.1,5.00,0.00,27.7,26.6,00.0,36.4,29.6,11.0,0000.0,0011.05,0006.57,0006.14
2022-10-28 20:21:00,,0831.0,5.00,0.00,27.7,26.6,00.0,36.4,29.6,11.2,0000.0,0011.08,0006.60,0006.17
2022-10-28 20:22:00,,0831.0,5.00,0.00,27.7,26.6,00.0,36.4,29.7,11.1,0000.0,0011.17,0006.66,0006.21
2022-10-28 20:23:00,,0830.9,5.03,0.00,27.8,26.6,00.0,36.4,29.7,11.2,0000.0,0011.34,0006.75,0006.29
2022-10-28 20:24:00,,0830.9,5.00,0.00,27.8,26.6,00.0,36.5,29.7,11.4,0000.0,0011.36,0006.79,0006.36
2022-10-28 20:25:00,,0830.9,5.00,0.00,27.8,26.7,00.0,36.5,29.7,11.4,0000.0,0011.67,0006.86,0006.42
2022-10-28 20:26:00,,0830.9,5.00,0.00,27.8,26.7,00.0,36.5,29.7,11.3,0000.0,0011.65,0006.99,0006.50
2022-10-28 20:27:00,,0830.9,4.99,0.00,27.8,26.7,00.0,36.5,29.7,10.9,0000.0,0012.44,0007.06,0006.53
2022-10-28 20:28:00,,0830.9,5.00,0.00,27.8,26.7,00.0,36.5,29.8,10.7,0000.0,0012.21,0007.10,0006.56
2022-10-28 20:29:00,,0830.9,5.01,0.00,27.9,26.7,00.0,36.6,29.8,10.9,0000.0,0012.29,0007.13,0006.61
2022-10-28 20:30:00,,0830.9,4.99,0.00,27.9,26.7,00.0,36.6,29.8,11.0,0000.0,0012.67,0007.20,0006.67
2022-10-28 20:31:00,,0830.8,4.99,0.00,27.9,26.8,00.0,36.6,29.8,10.9,0001.1,0012.75,0007.25,0006.72
2022-10-28 20:32:00,,0830.8,5.00,0.00,27.9,26.8,00.0,36.6,29.8,11.0,0001.7,0012.81,0007.27,0006.75
2022-10-28 20:33:00,,0830.7,5.00,0.00,27.9,26.8,00.0,36.6,29.8,10.9,0002.7,0012.94,0007.27,0006.75
2022-10-28 20:34:00,,0830.8,4.99,0.00,27.9,26.8,00.0,36.6,29.8,11.0,0001.8,0012.92,0007.22,0006.70
2022-10-28 20:35:00,,0830.7,5.01,0.00,28.0,26.8,00.0,36.6,29.9,10.6,0000.0,0012.88,0007.20,0006.64
2022-10-28 20:36:00,,0830.7,5.01,0.00,28.0,26.9,00.0,36.7,29.9,10.3,0000.0,0012.68,0007.11,0006.56
2022-10-28 20:37:00,,0830.8,4.99,0.00,28.0,26.9,00.0,36.7,29.9,10.4,0000.0,0012.76,0006.94,0006.46
2022-10-28 20:38:00,,0830.8,5.00,0.00,28.0,26.9,00.0,36.7,29.9,10.2,0000.0,0012.11,0006.88,0006.40
2022-10-28 20:39:00,,0830.8,5.00,0.00,28.0,26.9,00.0,36.7,29.9,09.9,0000.0,0011.78,0006.81,0006.34
2022-10-28 20:40:00,,0830.7,4.99,0.00,28.0,26.9,00.0,36.7,30.0,10.2,0000.0,0011.27,0006.71,0006.22
2022-10-28 20:41:00,,0830.7,5.02,0.00,28.1,26.9,00.0,36.7,30.0,10.3,0000.0,0010.79,0006.57,0006.08
2022-10-28 20:42:00,,0830.7,5.00,0.00,28.1,27.0,00.0,36.8,30.0,10.2,0000.0,0010.72,0006.45,0005.93
2022-10-28 20:43:00,,0830.6,5.00,0.00,28.1,27.0,00.0,36.8,30.0,10.2,0000.0,0010.64,0006.36,0005.81
2022-10-28 20:44:00,,0830.6,4.99,0.00,28.1,27.0,00.0,36.8,30.0,10.3,0000.0,0010.39,0006.25,0005.70
2022-10-28 20:45:00,,0830.6,5.00,0.00,28.1,27.0,00.0,36.8,30.0,10.6,0000.0,0010.36,0006.15,0005.63
2022-10-28 20:46:00,,0830.6,5.00,0.00,28.1,27.0,00.0,36.8,30.1,10.2,0000.0,0010.47,0006.06,0005.55
2022-10-28 20:47:00,,0830.6,5.01,0.00,28.2,27.1,00.0,36.8,30.1,10.0,0000.0,0010.42,0006.00,0005.47
2022-10-28 20:48:00,,0830.6,5.00,0.00,28.2,27.1,00.0,36.9,30.1,09.7,0000.0,0010.72,0005.93,0005.41
2022-10-28 20:49:00,,0830.7,5.00,0.00,28.2,27.1,00.0,36.9,30.1,09.7,0000.0,0010.60,0005.85,0005.32
2022-10-28 20:50:00,,0830.6,5.00,0.00,28.2,27.1,00.0,36.9,30.1,09.7,0000.0,0010.49,0005.77,0005.26
2022-10-28 20:51:00,,0830.6,4.99,0.00,28.2,27.1,00.0,36.9,30.2,10.0,0000.0,0010.38,0005.71,0005.22
2022-10-28 20:52:00,,0830.6,5.00,0.00,28.3,27.1,00.0,36.9,30.2,10.2,0000.0,0010.25,0005.65,0005.20
2022-10-28 20:53:00,,0830.6,5.00,0.00,28.3,27.2,00.0,36.9,30.2,09.9,0000.0,0010.10,0005.59,0005.16
2022-10-28 20:54:00,,0830.6,5.00,0.00,28.3,27.2,00.0,36.9,30.2,10.0,0000.0,0010.16,0005.51,0005.13
2022-10-28 20:55:00,,0830.6,4.99,0.00,28.3,27.2,00.0,37.0,30.2,10.2,0000.0,0010.71,0005.52,0005.11
2022-10-28 20:56:00,,0830.6,5.00,0.00,28.3,27.2,00.0,37.0,30.2,10.0,0000.0,0010.78,0005.50,0005.06
2022-10-28 20:57:00,,0830.6,5.00,0.00,28.3,27.2,00.0,37.0,30.2,10.0,0000.0,0010.50,0005.44,0005.02
2022-10-28 20:58:00,,0830.6,5.02,0.00,28.3,27.2,00.0,37.0,30.3,10.0,0000.0,0010.26,0005.37,0004.98
2022-10-28 20:59:00,,0830.6,4.99,0.00,28.4,27.3,00.0,37.0,30.3,10.3,0000.0,0009.37,0005.36,0004.97
